Location: Sceptre
(50.8619°N, 109.2670°W)
Time: 23:52:52
(UTC+00:00)

Envisat - Pass Details

Date: 26 January 2022
Orbit: 764 x 765 km, 98.2° (Epoch: 22 May)

Event Time Altitude Azimuth Distance (km) Brightness Sun altitude
Rises 14:15:48 0° 2° (N) 3,244 6.1 -7.4°
Reaches altitude 10° 14:19:07 10° 340° (NNW) 2,313 5.1 -6.9°
Maximum altitude 14:21:47 15° 308° (NW) 2,011 4.6 -6.5°
Drops below altitude 10° 14:24:27 10° 276° (W) 2,306 4.9 -6.1°
Sets 14:27:45 0° 253° (WSW) 3,228 5.8 -5.6°
